Find Starlink 32844

NORAD ID: 62820 Int'l Des: 2025-018 Owner: SPXS Country: US Constellation: starlink operational
LEOCIRCULAR

Live Position

Loading 3D Globe...

About Starlink 32844

Description loading...

Upcoming Passes

Passes for default location (London). Set your location on the main map for personalized predictions.

Altitude History

Loading altitude history...

Two-Line Element Set

1 62820U 25018Q 26126.45547888 .00018212 00000-0 59776-3 0 9991
2 62820 53.1600 41.2055 0001302 76.6037 283.5109 15.31670399 72019
Epoch: May 6, 2026 • Age: 11 hours

Current Status

Altitude 478.1 km
Velocity 7.63 km/s
Sub-Earth Point -24.41°S, 171.8°W
Launch Date Jan 24, 2025
Age 1.2 years
Type internet

Technical Details

Classification Payload
Mass 730.00 kg
Dry Mass 700.00 kg
Total Mass 730.00 kg
Length 0.30 m
Diameter 4.10 m
Span 29.00 m
Shape Box + pan
Manufacturer SPXS
Bus Type Starlink V2M
Phase Status In Orbit
Owner/State SPXS/US

Most Searched